This is the latest recevied weather packets stored in our database for station/object N4QD-13. If no packets are shown the sender has not sent any weather packets the latest 10 day(s).
| Time | Temp. | Humidity | Pressure | Rain* | Wind** | Luminosity | Snow |
|---|---|---|---|---|---|---|---|
| 1777728967 | 10.56° C | 64% | 1015.4 hPa | 0 mm | - | 260 W/m² | - |
| 1777728663 | 10.56° C | 64% | 1015.3 hPa | 0 mm | - | 291 W/m² | - |
| 1777728361 | 10.56° C | 66% | 1015.6 hPa | 0 mm | - | 333 W/m² | - |
| 1777728057 | 10° C | 65% | 1015.4 hPa | 0 mm | - | 274 W/m² | - |
| 1777727754 | 10° C | 65% | 1015.9 hPa | 0 mm | - | 246 W/m² | - |
| 1777727451 | 10° C | 66% | 1015.7 hPa | 0 mm | - | 248 W/m² | - |
| 1777727149 | 10° C | 68% | 1015.6 hPa | 0 mm | - | 209 W/m² | - |
| 1777726847 | 9.44° C | 66% | 1015.6 hPa | 0 mm | - | 214 W/m² | - |
| 1777726542 | 9.44° C | 67% | 1015.5 hPa | 0 mm | - | 210 W/m² | - |
| 1777726240 | 8.89° C | 69% | 1015.6 hPa | 0 mm | - | 192 W/m² | - |
| 1777725937 | 8.89° C | 69% | 1015.4 hPa | 0 mm | - | 165 W/m² | - |
| 1777725634 | 8.89° C | 68% | 1015.6 hPa | 0 mm | - | 136 W/m² | - |
| 1777725332 | 8.89° C | 69% | 1015.6 hPa | 0 mm | - | 131 W/m² | - |
| 1777725028 | 8.89° C | 69% | 1015.7 hPa | 0 mm | - | 121 W/m² | - |
| 1777724725 | 8.89° C | 70% | 1015.4 hPa | 0 mm | - | 129 W/m² | - |
| 1777724422 | 8.33° C | 68% | 1015.5 hPa | 0 mm | - | 104 W/m² | - |
| 1777724120 | 8.33° C | 70% | 1015.3 hPa | 0 mm | - | 100 W/m² | - |
| 1777723817 | 8.33° C | 70% | 1015.7 hPa | 0 mm | - | 93 W/m² | - |
| 1777723513 | 8.33° C | 69% | 1015.4 hPa | 0 mm | - | 85 W/m² | - |
| 1777723210 | 8.33° C | 70% | 1015.2 hPa | 0 mm | - | 83 W/m² | - |
| 1777722908 | 8.33° C | 69% | 1015.5 hPa | 0 mm | - | 93 W/m² | - |
| 1777722603 | 7.78° C | 71% | 1015.4 hPa | 0 mm | - | 81 W/m² | - |
| 1777722300 | 7.78° C | 71% | 1015.6 hPa | 0 mm | - | 79 W/m² | - |
| 1777721997 | 7.78° C | 72% | 1015.4 hPa | 0 mm | - | 70 W/m² | - |
| 1777721695 | 7.78° C | 72% | 1015.5 hPa | 0 mm | - | 69 W/m² | - |
* Rain latest hour (hover to see other rain measurements)
** Current wind speed in m/s (hover to see current wind gust speed)